| time (UTC) | temp F | wind direction | speed MPH | gust MPH | rain 1hr in | rain 24hr in | rain mn in | humidity % | barometer mb |
| 20260504130518 | 55 | 327 | 2.0 | 2.0 | 0.00 | 0.00 | 0.00 | 71 | 1009.9 |
| 20260504110517 | 58 | 212 | 2.0 | 4.0 | 0.00 | 0.00 | 0.00 | 62 | 1009.9 |
| 20260504100516 | 59 | 236 | 3.0 | 3.0 | 0.00 | 0.00 | 0.00 | 57 | 1009.7 |
| 20260504081518 | 64 | 230 | 2.0 | 3.0 | 0.00 | 0.00 | 0.00 | 49 | 1009.5 |
| 20260504080518 | 64 | 248 | 3.0 | 3.0 | 0.00 | 0.00 | 0.00 | 50 | 1009.5 |
| 20260504050516 | 68 | 250 | 2.0 | 4.0 | 0.00 | 0.00 | 0.00 | 45 | 1009.4 |
| 20260504045536 | 69 | 285 | 2.0 | 3.0 | 0.00 | 0.00 | 0.00 | 44 | 1009.4 |
| 20260504044516 | 69 | 277 | 2.0 | 2.0 | 0.00 | 0.00 | 0.00 | 42 | 1009.4 |
| 20260504043516 | 70 | 226 | 1.0 | 3.0 | 0.00 | 0.00 | 0.00 | 43 | 1009.4 |
| 20260504042515 | 70 | 253 | 1.0 | 2.0 | 0.00 | 0.00 | 0.00 | 41 | 1009.4 |
| 20260504041516 | 71 | 258 | 1.0 | 2.0 | 0.00 | 0.00 | 0.00 | 39 | 1009.4 |
| 20260504040516 | 71 | 277 | 1.0 | 2.0 | 0.00 | 0.00 | 0.00 | 38 | 1009.3 |
| 20260504035517 | 72 | 284 | 1.0 | 2.0 | 0.00 | 0.00 | 0.00 | 37 | 1009.2 |
| 20260504034517 | 72 | 284 | 2.0 | 3.0 | 0.00 | 0.00 | 0.00 | 36 | 1009.2 |
| 20260504033517 | 73 | 286 | 1.0 | 2.0 | 0.00 | 0.00 | 0.00 | 36 | 1009.2 |
| 20260504032537 | 74 | 279 | 1.0 | 2.0 | 0.00 | 0.00 | 0.00 | 34 | 1009.2 |
| 20260504031517 | 75 | 284 | 1.0 | 2.0 | 0.00 | 0.00 | 0.00 | 32 | 1009.2 |
| 20260504030517 | 76 | 281 | 1.0 | 2.0 | 0.00 | 0.00 | 0.00 | 30 | 1009.3 |
| 20260504025518 | 77 | 286 | 1.0 | 3.0 | 0.00 | 0.00 | 0.00 | 29 | 1009.4 |
| 20260504024518 | 77 | 276 | 1.0 | 1.0 | 0.00 | 0.00 | 0.00 | 28 | 1009.4 |
| 20260504023518 | 78 | 284 | 1.0 | 3.0 | 0.00 | 0.00 | 0.00 | 27 | 1009.4 |
| 20260504022518 | 78 | 285 | 1.0 | 3.0 | 0.00 | 0.00 | 0.00 | 27 | 1009.5 |
| 20260504021518 | 78 | 284 | 1.0 | 2.0 | 0.00 | 0.00 | 0.00 | 26 | 1009.5 |
| 20260504020518 | 79 | 289 | 1.0 | 2.0 | 0.00 | 0.00 | 0.00 | 26 | 1009.6 |
| 20260504015518 | 81 | 287 | 1.0 | 3.0 | 0.00 | 0.00 | 0.00 | 26 | 1009.7 |
| 20260504014516 | 82 | 290 | 1.0 | 4.0 | 0.00 | 0.00 | 0.00 | 25 | 1009.8 |
| 20260504013516 | 82 | 290 | 1.0 | 3.0 | 0.00 | 0.00 | 0.00 | 26 | 1009.9 |
| 20260504012516 | 83 | 294 | 1.0 | 3.0 | 0.00 | 0.00 | 0.00 | 27 | 1010.0 |
| 20260504011536 | 83 | 288 | 1.0 | 3.0 | 0.00 | 0.00 | 0.00 | 27 | 1010.1 |
| 20260504010516 | 83 | 285 | 2.0 | 5.0 | 0.00 | 0.00 | 0.00 | 27 | 1010.2 |
| 20260504005516 | 83 | 288 | 1.0 | 3.0 | 0.00 | 0.00 | 0.00 | 27 | 1010.3 |
| 20260504004516 | 84 | 286 | 2.0 | 3.0 | 0.00 | 0.00 | 0.00 | 27 | 1010.4 |
| 20260504003536 | 84 | 294 | 1.0 | 3.0 | 0.00 | 0.00 | 0.00 | 27 | 1010.5 |
| 20260504002517 | 84 | 300 | 1.0 | 3.0 | 0.00 | 0.00 | 0.00 | 27 | 1010.7 |
| 20260504001521 | 83 | 293 | 1.0 | 3.0 | 0.00 | 0.00 | 0.00 | 28 | 1010.8 |
| 20260504000517 | 83 | 282 | 2.0 | 4.0 | 0.00 | 0.00 | 0.00 | 27 | 1010.9 |
| 20260503235518 | 83 | 295 | 2.0 | 4.0 | 0.00 | 0.00 | 0.00 | 27 | 1010.9 |
| 20260503234518 | 83 | 297 | 1.0 | 3.0 | 0.00 | 0.00 | 0.00 | 27 | 1011.1 |
| 20260503233517 | 83 | 298 | 2.0 | 4.0 | 0.00 | 0.00 | 0.00 | 27 | 1011.1 |
| 20260503232519 | 82 | 298 | 1.0 | 4.0 | 0.00 | 0.00 | 0.00 | 29 | 1011.3 |
| 20260503231538 | 81 | 290 | 2.0 | 5.0 | 0.00 | 0.00 | 0.00 | 29 | 1011.4 |
| 20260503230516 | 81 | 300 | 2.0 | 7.0 | 0.00 | 0.00 | 0.00 | 29 | 1011.6 |
| 20260503225515 | 82 | 290 | 2.0 | 4.0 | 0.00 | 0.00 | 0.00 | 29 | 1011.7 |
| 20260503224516 | 81 | 291 | 2.0 | 4.0 | 0.00 | 0.00 | 0.00 | 30 | 1011.8 |
| 20260503223536 | 81 | 294 | 2.0 | 6.0 | 0.00 | 0.00 | 0.00 | 31 | 1012.0 |
| 20260503222536 | 81 | 289 | 1.0 | 3.0 | 0.00 | 0.00 | 0.00 | 33 | 1012.2 |
| 20260503221537 | 80 | 290 | 1.0 | 5.0 | 0.00 | 0.00 | 0.00 | 33 | 1012.2 |
| 20260503220517 | 80 | 295 | 2.0 | 6.0 | 0.00 | 0.00 | 0.00 | 33 | 1012.3 |
| 20260503215517 | 80 | 309 | 1.0 | 5.0 | 0.00 | 0.00 | 0.00 | 33 | 1012.4 |
| 20260503214516 | 80 | 290 | 2.0 | 5.0 | 0.00 | 0.00 | 0.00 | 33 | 1012.6 |
| 20260503213517 | 79 | 296 | 1.0 | 4.0 | 0.00 | 0.00 | 0.00 | 33 | 1012.7 |
| 20260503212517 | 79 | 302 | 2.0 | 5.0 | 0.00 | 0.00 | 0.00 | 35 | 1012.7 |
| 20260503211517 | 79 | 299 | 2.0 | 5.0 | 0.00 | 0.00 | 0.00 | 35 | 1012.8 |
| 20260503210517 | 78 | 309 | 1.0 | 4.0 | 0.00 | 0.00 | 0.00 | 36 | 1012.9 |
| 20260503205517 | 79 | 297 | 3.0 | 6.0 | 0.00 | 0.00 | 0.00 | 36 | 1013.0 |
| 20260503204518 | 79 | 301 | 2.0 | 5.0 | 0.00 | 0.00 | 0.00 | 38 | 1013.2 |
| 20260503203518 | 79 | 283 | 1.0 | 3.0 | 0.00 | 0.00 | 0.00 | 39 | 1013.2 |
| 20260503202538 | 77 | 307 | 1.0 | 4.0 | 0.00 | 0.00 | 0.00 | 41 | 1013.4 |
| 20260503201556 | 79 | 291 | 2.0 | 5.0 | 0.00 | 0.00 | 0.00 | 39 | 1013.4 |
| 20260503200515 | 78 | 308 | 1.0 | 4.0 | 0.00 | 0.00 | 0.00 | 40 | 1013.6 |
| 20260503195515 | 77 | 86 | 2.0 | 4.0 | 0.00 | 0.00 | 0.00 | 42 | 1013.7 |
| 20260503194516 | 77 | 299 | 2.0 | 8.0 | 0.00 | 0.00 | 0.00 | 41 | 1013.8 |
| 20260503193516 | 77 | 295 | 1.0 | 4.0 | 0.00 | 0.00 | 0.00 | 41 | 1014.0 |
| 20260503192516 | 76 | 25 | 1.0 | 5.0 | 0.00 | 0.00 | 0.00 | 43 | 1014.1 |
| 20260503191520 | 75 | 288 | 2.0 | 5.0 | 0.00 | 0.00 | 0.00 | 42 | 1014.2 |
| 20260503190517 | 76 | 289 | 2.0 | 6.0 | 0.00 | 0.00 | 0.00 | 41 | 1014.3 |
| 20260503185517 | 75 | 75 | 2.0 | 5.0 | 0.00 | 0.00 | 0.00 | 43 | 1014.3 |
| 20260503184537 | 75 | 89 | 2.0 | 4.0 | 0.00 | 0.00 | 0.00 | 44 | 1014.4 |
| 20260503183520 | 75 | 84 | 2.0 | 6.0 | 0.00 | 0.00 | 0.00 | 44 | 1014.4 |
| 20260503182517 | 75 | 86 | 3.0 | 5.0 | 0.00 | 0.00 | 0.00 | 45 | 1014.5 |
| 20260503181518 | 74 | 91 | 1.0 | 4.0 | 0.00 | 0.00 | 0.00 | 42 | 1014.5 |
| 20260503180537 | 74 | 77 | 2.0 | 4.0 | 0.00 | 0.00 | 0.00 | 42 | 1014.6 |
| 20260503175517 | 74 | 298 | 1.0 | 4.0 | 0.00 | 0.00 | 0.00 | 40 | 1014.6 |
| 20260503174518 | 73 | 85 | 2.0 | 5.0 | 0.00 | 0.00 | 0.00 | 39 | 1014.6 |
| 20260503173518 | 72 | 94 | 2.0 | 5.0 | 0.00 | 0.00 | 0.00 | 40 | 1014.7 |
| 20260503172518 | 72 | 89 | 2.0 | 4.0 | 0.00 | 0.00 | 0.00 | 42 | 1014.8 |
| 20260503171516 | 71 | 89 | 2.0 | 4.0 | 0.00 | 0.00 | 0.00 | 44 | 1014.9 |
| 20260503170515 | 70 | 91 | 1.0 | 3.0 | 0.00 | 0.00 | 0.00 | 46 | 1014.9 |
| 20260503150518 | 66 | 189 | 2.0 | 3.0 | 0.00 | 0.00 | 0.00 | 52 | 1015.4 |